VOE76RL LFRS-LEMH

Flight info

Callsign VOE76RL
Flight time 1h 23m
Altitude 25000
Route LUGEN UM616 TUPAR/N0444F330 DCT CNA DCT SECHE DCT AGN DCT TOU DCT LOMRA DCT ROCAN DCT GEANT DCT GIR DCT SALON DCT SULID DCT DIPES N727 SARGO
Aircraft A319/M-SDE3FGHIRWY/LB1

Departure

Time 2026-04-29 19:22
Airport Nantes Atlantique Airport (LFRS)

Arrival

Time 2026-04-29 20:45
Airport Menorca Airport (LEMH)
Time Latitude Longitude Altitude Speed Heading
2026-04-29 18:49 47.15486 -1.60113 91 ft 0 kts 207°
2026-04-29 19:13 47.15500 -1.60103 90 ft 4 kts 207°
2026-04-29 19:13 47.15520 -1.60087 91 ft 4 kts 205°
2026-04-29 19:13 47.15541 -1.60081 90 ft 4 kts 139°
2026-04-29 19:13 47.15555 -1.60112 94 ft 4 kts 115°
2026-04-29 19:14 47.15566 -1.60146 91 ft 4 kts 117°
2026-04-29 19:14 47.15579 -1.60181 91 ft 4 kts 117°
2026-04-29 19:14 47.15591 -1.60216 91 ft 4 kts 117°
2026-04-29 19:14 47.15601 -1.60244 93 ft 4 kts 116°
2026-04-29 19:15 47.15613 -1.60279 92 ft 4 kts 127°
2026-04-29 19:15 47.15622 -1.60294 92 ft 0 kts 138°
2026-04-29 19:17 47.15621 -1.60292 92 ft 1 kts 138°
2026-04-29 19:17 47.15619 -1.60274 93 ft 3 kts 84°
2026-04-29 19:17 47.15632 -1.60269 90 ft 2 kts 351°
2026-04-29 19:17 47.15639 -1.60291 91 ft 4 kts 289°
2026-04-29 19:18 47.15658 -1.60341 90 ft 7 kts 311°
2026-04-29 19:18 47.15682 -1.60373 90 ft 7 kts 319°
2026-04-29 19:18 47.15740 -1.60438 90 ft 7 kts 326°
2026-04-29 19:18 47.15787 -1.60446 89 ft 7 kts 15°
2026-04-29 19:19 47.15829 -1.60414 89 ft 7 kts 28°
2026-04-29 19:19 47.15871 -1.60382 92 ft 7 kts 27°
2026-04-29 19:19 47.15911 -1.60351 90 ft 6 kts 27°
2026-04-29 19:19 47.15948 -1.60342 92 ft 7 kts 348°
2026-04-29 19:20 47.15980 -1.60411 90 ft 10 kts 297°
2026-04-29 19:20 47.16006 -1.60534 82 ft 14 kts 256°
2026-04-29 19:20 47.15963 -1.60581 83 ft 0 kts 208°
2026-04-29 19:21 47.15950 -1.60591 85 ft 12 kts 208°
2026-04-29 19:21 47.15624 -1.60840 86 ft 90 kts 207°
2026-04-29 19:21 47.14868 -1.61412 92 ft 152 kts 207°
2026-04-29 19:22 47.13940 -1.62120 662 ft 151 kts 206°
2026-04-29 19:22 47.13016 -1.62823 1346 ft 148 kts 204°
2026-04-29 19:22 47.12090 -1.63493 1969 ft 151 kts 195°
2026-04-29 19:22 47.11000 -1.63511 2292 ft 168 kts 161°
2026-04-29 19:23 47.09975 -1.62500 2590 ft 194 kts 128°
2026-04-29 19:23 47.09399 -1.60572 3012 ft 221 kts 110°
2026-04-29 19:23 47.08899 -1.58309 3575 ft 242 kts 112°
2026-04-29 19:23 47.07970 -1.56236 4484 ft 246 kts 133°
2026-04-29 19:24 47.06794 -1.54410 5538 ft 247 kts 133°
2026-04-29 19:24 47.05606 -1.52567 6526 ft 250 kts 133°
2026-04-29 19:24 47.04400 -1.50694 7431 ft 254 kts 134°
2026-04-29 19:24 47.03171 -1.48792 8361 ft 259 kts 134°
2026-04-29 19:25 47.01939 -1.46890 9275 ft 263 kts 135°
2026-04-29 19:25 47.00667 -1.44928 10145 ft 269 kts 135°
2026-04-29 19:25 46.99324 -1.42859 10525 ft 292 kts 135°
2026-04-29 19:25 46.97874 -1.40622 10947 ft 310 kts 135°
2026-04-29 19:26 46.96372 -1.38304 11666 ft 317 kts 135°
2026-04-29 19:26 46.94832 -1.35932 12430 ft 323 kts 135°
2026-04-29 19:26 46.93275 -1.33537 13211 ft 327 kts 135°
2026-04-29 19:26 46.91715 -1.31135 13953 ft 332 kts 135°
2026-04-29 19:27 46.90118 -1.28679 14647 ft 335 kts 135°
2026-04-29 19:27 46.88499 -1.26192 15350 ft 338 kts 135°
2026-04-29 19:27 46.86866 -1.23690 16054 ft 342 kts 135°
2026-04-29 19:27 46.85218 -1.21163 16724 ft 345 kts 135°
2026-04-29 19:28 46.83537 -1.18611 17390 ft 349 kts 136°
2026-04-29 19:28 46.81772 -1.16146 18061 ft 353 kts 139°
2026-04-29 19:28 46.79932 -1.13744 18667 ft 356 kts 140°
2026-04-29 19:28 46.78046 -1.11363 19264 ft 360 kts 140°
2026-04-29 19:29 46.76139 -1.08975 19872 ft 363 kts 140°
2026-04-29 19:29 46.74223 -1.06562 20485 ft 365 kts 140°
2026-04-29 19:29 46.72298 -1.04113 21089 ft 368 kts 140°
2026-04-29 19:29 46.70368 -1.01634 21688 ft 371 kts 139°
2026-04-29 19:30 46.68445 -0.99148 22276 ft 374 kts 139°
2026-04-29 19:30 46.66491 -0.96619 22866 ft 377 kts 139°
2026-04-29 19:30 46.64515 -0.94066 23426 ft 381 kts 139°
2026-04-29 19:30 46.62518 -0.91495 23904 ft 384 kts 139°
2026-04-29 19:31 46.60509 -0.88914 24358 ft 386 kts 139°
2026-04-29 19:31 46.58491 -0.86324 24815 ft 389 kts 140°
2026-04-29 19:31 46.56459 -0.83713 25259 ft 391 kts 140°
2026-04-29 19:31 46.54417 -0.81083 25714 ft 393 kts 140°
2026-04-29 19:32 46.52363 -0.78430 26059 ft 398 kts 140°
2026-04-29 19:32 46.50283 -0.75745 26432 ft 402 kts 140°
2026-04-29 19:32 46.48180 -0.73037 26834 ft 405 kts 140°
2026-04-29 19:32 46.46091 -0.70355 27251 ft 408 kts 140°
2026-04-29 19:33 46.43872 -0.67767 27660 ft 409 kts 147°
2026-04-29 19:33 46.41396 -0.65746 28080 ft 410 kts 157°
2026-04-29 19:33 46.38715 -0.64329 28490 ft 411 kts 163°
2026-04-29 19:33 46.35979 -0.63076 28913 ft 413 kts 163°
2026-04-29 19:34 46.33237 -0.61818 29340 ft 415 kts 163°
2026-04-29 19:34 46.30475 -0.60547 29744 ft 417 kts 163°
2026-04-29 19:34 46.27703 -0.59268 30111 ft 419 kts 163°
2026-04-29 19:34 46.24922 -0.57987 30433 ft 421 kts 163°
2026-04-29 19:35 46.22155 -0.56716 30750 ft 422 kts 163°
2026-04-29 19:35 46.19350 -0.55429 31067 ft 424 kts 164°
2026-04-29 19:35 46.16528 -0.54134 31387 ft 426 kts 164°
2026-04-29 19:35 46.13703 -0.52836 31757 ft 426 kts 164°
2026-04-29 19:36 46.10886 -0.51540 32231 ft 424 kts 164°
2026-04-29 19:36 46.08079 -0.50253 32681 ft 422 kts 164°
2026-04-29 19:36 46.05285 -0.48975 33128 ft 421 kts 165°
2026-04-29 19:36 46.03400 -0.48114 33432 ft 420 kts 165°
2026-04-29 19:37 46.00658 -0.46863 33875 ft 419 kts 165°
2026-04-29 19:37 45.98779 -0.46007 34141 ft 418 kts 165°
2026-04-29 19:37 45.95106 -0.44340 34616 ft 418 kts 165°
2026-04-29 19:37 45.91422 -0.42670 34903 ft 418 kts 165°
2026-04-29 19:38 45.89552 -0.41822 34934 ft 415 kts 165°
2026-04-29 19:38 45.84075 -0.39338 34937 ft 411 kts 165°
2026-04-29 19:39 45.78535 -0.36841 34932 ft 428 kts 165°
2026-04-29 19:39 45.72786 -0.34249 34934 ft 435 kts 165°
2026-04-29 19:40 45.67002 -0.31633 34948 ft 436 kts 164°
2026-04-29 19:40 45.61443 -0.28053 34947 ft 439 kts 156°
2026-04-29 19:41 45.55980 -0.24261 34944 ft 439 kts 156°
2026-04-29 19:41 45.50480 -0.20462 34937 ft 439 kts 156°
2026-04-29 19:42 45.44968 -0.16663 34932 ft 439 kts 157°
2026-04-29 19:42 45.39456 -0.12885 34927 ft 439 kts 157°
2026-04-29 19:43 45.33952 -0.09115 34920 ft 439 kts 156°
2026-04-29 19:43 45.28477 -0.05357 34918 ft 440 kts 156°
2026-04-29 19:44 45.22962 -0.01586 34915 ft 440 kts 157°
2026-04-29 19:44 45.17559 0.02097 34929 ft 421 kts 156°
2026-04-29 19:45 45.12304 0.05661 34936 ft 416 kts 157°
2026-04-29 19:45 45.07079 0.09199 34933 ft 415 kts 157°
2026-04-29 19:46 45.01892 0.12706 34935 ft 415 kts 157°
2026-04-29 19:46 44.96674 0.16230 34937 ft 416 kts 156°
2026-04-29 19:47 44.91445 0.19758 34942 ft 417 kts 157°
2026-04-29 19:47 44.86202 0.23286 34940 ft 417 kts 157°
2026-04-29 19:48 44.80968 0.26801 34935 ft 417 kts 157°
2026-04-29 19:48 44.75729 0.30303 34933 ft 417 kts 157°
2026-04-29 19:49 44.70518 0.33793 34931 ft 417 kts 157°
2026-04-29 19:49 44.65280 0.37294 34928 ft 417 kts 157°
2026-04-29 19:50 44.60034 0.40784 34921 ft 417 kts 157°
2026-04-29 19:50 44.54789 0.44277 34931 ft 418 kts 157°
2026-04-29 19:51 44.49445 0.47822 34945 ft 435 kts 157°
2026-04-29 19:51 44.43912 0.51478 34935 ft 442 kts 157°
2026-04-29 19:52 44.38328 0.55155 34941 ft 443 kts 157°
2026-04-29 19:52 44.32736 0.58813 34934 ft 444 kts 157°
2026-04-29 19:53 44.27131 0.62473 34951 ft 444 kts 157°
2026-04-29 19:53 44.21563 0.66095 34941 ft 444 kts 157°
2026-04-29 19:54 44.13159 0.71536 34944 ft 444 kts 157°
2026-04-29 19:54 44.07552 0.75178 34934 ft 444 kts 157°
2026-04-29 19:55 44.01953 0.78810 34930 ft 444 kts 157°
2026-04-29 19:55 43.96348 0.82428 34930 ft 444 kts 157°
2026-04-29 19:56 43.90876 0.86285 34928 ft 447 kts 148°
2026-04-29 19:56 43.88464 0.89015 34942 ft 450 kts 137°
2026-04-29 19:56 43.86425 0.92345 34942 ft 454 kts 127°
2026-04-29 19:57 43.83540 0.98436 34945 ft 455 kts 126°
2026-04-29 19:57 43.80930 1.03019 34934 ft 450 kts 141°
2026-04-29 19:57 43.78410 1.05525 34951 ft 445 kts 151°
2026-04-29 19:58 43.73108 1.09882 34943 ft 446 kts 152°
2026-04-29 19:58 43.67748 1.14233 34955 ft 447 kts 152°
2026-04-29 19:59 43.62384 1.18601 34943 ft 447 kts 152°
2026-04-29 19:59 43.57009 1.22978 34955 ft 448 kts 152°
2026-04-29 20:00 43.51664 1.27329 34959 ft 449 kts 152°
2026-04-29 20:00 43.46284 1.31696 34964 ft 449 kts 152°
2026-04-29 20:01 43.40897 1.36057 34957 ft 450 kts 152°
2026-04-29 20:01 43.35491 1.40417 34951 ft 451 kts 152°
2026-04-29 20:02 43.30064 1.44776 34950 ft 452 kts 152°
2026-04-29 20:02 43.25550 1.48409 34952 ft 452 kts 152°
2026-04-29 20:03 43.19190 1.53519 34943 ft 453 kts 152°
2026-04-29 20:03 43.13783 1.57841 34966 ft 453 kts 152°
2026-04-29 20:04 43.08342 1.62182 34980 ft 452 kts 152°
2026-04-29 20:04 43.02904 1.66514 34986 ft 452 kts 152°
2026-04-29 20:05 42.97467 1.70854 34977 ft 453 kts 152°
2026-04-29 20:05 42.92011 1.75184 34972 ft 454 kts 152°
2026-04-29 20:06 42.86537 1.79509 34971 ft 455 kts 152°
2026-04-29 20:06 42.81096 1.83815 34986 ft 456 kts 152°
2026-04-29 20:07 42.75592 1.88175 34999 ft 456 kts 152°
2026-04-29 20:07 42.70096 1.92504 35000 ft 457 kts 152°
2026-04-29 20:08 42.65700 1.96499 35028 ft 459 kts 142°
2026-04-29 20:08 42.59968 2.02980 35033 ft 459 kts 142°
2026-04-29 20:09 42.55053 2.08521 35026 ft 459 kts 142°
2026-04-29 20:09 42.50149 2.14021 35026 ft 460 kts 143°
2026-04-29 20:10 42.45211 2.19541 35024 ft 460 kts 143°
2026-04-29 20:10 42.40270 2.25064 35030 ft 460 kts 143°
2026-04-29 20:11 42.35326 2.30578 35002 ft 461 kts 143°
2026-04-29 20:11 42.30357 2.36105 35006 ft 462 kts 143°
2026-04-29 20:12 42.25381 2.41625 35016 ft 463 kts 143°
2026-04-29 20:12 42.20428 2.47126 35012 ft 464 kts 143°
2026-04-29 20:13 42.16250 2.51749 35013 ft 464 kts 143°
2026-04-29 20:13 42.10436 2.58160 35012 ft 465 kts 143°
2026-04-29 20:14 42.05420 2.63687 35013 ft 466 kts 143°
2026-04-29 20:14 42.00406 2.69211 35007 ft 466 kts 143°
2026-04-29 20:15 41.95374 2.74736 35003 ft 466 kts 143°
2026-04-29 20:15 41.90310 2.80101 35004 ft 466 kts 146°
2026-04-29 20:16 41.85020 2.85131 34998 ft 466 kts 148°
2026-04-29 20:16 41.79676 2.90064 34997 ft 467 kts 148°
2026-04-29 20:17 41.74352 2.95065 35000 ft 468 kts 147°
2026-04-29 20:17 41.69050 3.00128 34996 ft 468 kts 147°
2026-04-29 20:18 41.63745 3.05203 34995 ft 469 kts 147°
2026-04-29 20:18 41.58416 3.10258 34993 ft 470 kts 147°
2026-04-29 20:19 41.53073 3.15295 34997 ft 470 kts 147°
2026-04-29 20:19 41.47733 3.20264 34989 ft 471 kts 149°
2026-04-29 20:20 41.42234 3.24875 35014 ft 454 kts 152°
2026-04-29 20:20 41.36869 3.29127 34506 ft 446 kts 152°
2026-04-29 20:21 41.34212 3.31243 33897 ft 444 kts 152°
2026-04-29 20:21 41.31572 3.33377 33262 ft 442 kts 151°
2026-04-29 20:21 41.28967 3.35509 32668 ft 438 kts 151°
2026-04-29 20:21 41.26384 3.37631 32101 ft 434 kts 150°
2026-04-29 20:22 41.23826 3.39732 31523 ft 431 kts 150°
2026-04-29 20:22 41.21278 3.41818 30961 ft 428 kts 150°
2026-04-29 20:22 41.18757 3.43879 30418 ft 424 kts 150°
2026-04-29 20:22 41.16283 3.45898 29851 ft 420 kts 150°
2026-04-29 20:23 41.13769 3.47944 29295 ft 415 kts 150°
2026-04-29 20:23 41.11352 3.49909 28778 ft 410 kts 150°
2026-04-29 20:23 41.08932 3.51871 28266 ft 405 kts 150°
2026-04-29 20:23 41.06540 3.53806 27747 ft 401 kts 150°
2026-04-29 20:24 41.04165 3.55725 27259 ft 398 kts 150°
2026-04-29 20:24 41.01812 3.57628 26768 ft 395 kts 150°
2026-04-29 20:24 41.00227 3.58912 26446 ft 393 kts 150°
2026-04-29 20:24 40.97934 3.60771 25986 ft 391 kts 150°
2026-04-29 20:25 40.95617 3.62645 25537 ft 389 kts 150°
2026-04-29 20:25 40.93308 3.64510 25087 ft 387 kts 150°
2026-04-29 20:25 40.91018 3.66361 24642 ft 384 kts 150°
2026-04-29 20:25 40.88743 3.68195 24200 ft 382 kts 151°
2026-04-29 20:26 40.86483 3.70012 23755 ft 379 kts 151°
2026-04-29 20:26 40.84229 3.71823 23247 ft 377 kts 151°
2026-04-29 20:26 40.81998 3.73614 22801 ft 373 kts 151°
2026-04-29 20:26 40.79787 3.75388 22344 ft 370 kts 151°
2026-04-29 20:27 40.77629 3.77122 21905 ft 366 kts 151°
2026-04-29 20:27 40.76163 3.78299 21605 ft 364 kts 151°
2026-04-29 20:27 40.73319 3.80580 21090 ft 359 kts 150°
2026-04-29 20:27 40.71185 3.82291 20621 ft 357 kts 150°
2026-04-29 20:28 40.69064 3.83990 20153 ft 356 kts 150°
2026-04-29 20:28 40.66946 3.85682 19699 ft 355 kts 150°
2026-04-29 20:28 40.64833 3.87367 19237 ft 354 kts 150°
2026-04-29 20:28 40.62729 3.89048 18779 ft 354 kts 150°
2026-04-29 20:29 40.60629 3.90723 18321 ft 353 kts 150°
2026-04-29 20:29 40.58528 3.92397 17820 ft 352 kts 150°
2026-04-29 20:29 40.56343 3.93862 17066 ft 355 kts 163°
2026-04-29 20:29 40.53947 3.94393 16869 ft 341 kts 180°
2026-04-29 20:30 40.51646 3.94420 16790 ft 328 kts 181°
2026-04-29 20:30 40.49369 3.94425 16619 ft 338 kts 182°
2026-04-29 20:30 40.46955 3.94407 16363 ft 351 kts 182°
2026-04-29 20:30 40.44502 3.94379 16110 ft 353 kts 182°
2026-04-29 20:31 40.42050 3.94347 15863 ft 352 kts 182°
2026-04-29 20:31 40.39602 3.94317 15610 ft 351 kts 182°
2026-04-29 20:31 40.37157 3.94289 15364 ft 350 kts 182°
2026-04-29 20:31 40.34759 3.94263 15124 ft 348 kts 182°
2026-04-29 20:32 40.32341 3.94240 14880 ft 347 kts 182°
2026-04-29 20:32 40.29936 3.94214 14638 ft 345 kts 182°
2026-04-29 20:32 40.27539 3.94186 14400 ft 343 kts 182°
2026-04-29 20:32 40.25155 3.94162 14164 ft 342 kts 182°
2026-04-29 20:33 40.22782 3.94142 13933 ft 340 kts 182°
2026-04-29 20:33 40.20415 3.94119 13688 ft 339 kts 182°
2026-04-29 20:33 40.18060 3.94092 13417 ft 337 kts 182°
2026-04-29 20:33 40.15716 3.94065 13156 ft 336 kts 182°
2026-04-29 20:34 40.13382 3.94040 12897 ft 335 kts 182°
2026-04-29 20:34 40.11056 3.94017 12640 ft 334 kts 181°
2026-04-29 20:34 40.08759 3.93998 12387 ft 332 kts 181°
2026-04-29 20:34 40.06449 3.93978 12137 ft 331 kts 181°
2026-04-29 20:35 40.04150 3.93953 11881 ft 330 kts 181°
2026-04-29 20:35 40.01857 3.93926 11634 ft 329 kts 181°
2026-04-29 20:35 39.99570 3.93900 11387 ft 328 kts 181°
2026-04-29 20:35 39.97293 3.93875 11142 ft 326 kts 181°
2026-04-29 20:36 39.95049 3.93849 10901 ft 325 kts 181°
2026-04-29 20:36 39.92767 3.93819 10655 ft 320 kts 182°
2026-04-29 20:36 39.90595 3.93713 10418 ft 314 kts 184°
2026-04-29 20:36 39.88429 3.93536 10194 ft 308 kts 185°
2026-04-29 20:37 39.86330 3.93399 10067 ft 296 kts 180°
2026-04-29 20:37 39.84298 3.93533 9840 ft 288 kts 174°
2026-04-29 20:37 39.82306 3.93913 9398 ft 291 kts 169°
2026-04-29 20:37 39.80351 3.94536 9041 ft 288 kts 164°
2026-04-29 20:38 39.78463 3.95379 8639 ft 286 kts 159°
2026-04-29 20:38 39.76652 3.96430 8236 ft 284 kts 154°
2026-04-29 20:38 39.74927 3.97681 7840 ft 283 kts 149°
2026-04-29 20:38 39.73327 3.99101 7450 ft 281 kts 144°
2026-04-29 20:39 39.71825 4.00708 7064 ft 279 kts 139°
2026-04-29 20:39 39.70452 4.02472 6682 ft 277 kts 134°
2026-04-29 20:39 39.69212 4.04377 6298 ft 275 kts 129°
2026-04-29 20:39 39.68110 4.06404 5897 ft 272 kts 124°
2026-04-29 20:40 39.67166 4.08520 5530 ft 270 kts 118°
2026-04-29 20:40 39.66378 4.10710 5160 ft 265 kts 114°
2026-04-29 20:40 39.65751 4.12893 4800 ft 258 kts 109°
2026-04-29 20:40 39.65492 4.15149 4425 ft 253 kts 83°
2026-04-29 20:41 39.66211 4.17176 4093 ft 249 kts 49°
2026-04-29 20:41 39.67698 4.18269 3703 ft 250 kts 12°
2026-04-29 20:41 39.69420 4.18487 3373 ft 247 kts
2026-04-29 20:41 39.71114 4.18756 3044 ft 243 kts 10°
2026-04-29 20:42 39.72758 4.19088 2727 ft 235 kts 11°
2026-04-29 20:42 39.74339 4.19415 2427 ft 222 kts 11°
2026-04-29 20:42 39.75817 4.19719 2143 ft 207 kts 11°
2026-04-29 20:42 39.77194 4.20001 1916 ft 194 kts 12°
2026-04-29 20:43 39.78483 4.20266 1633 ft 184 kts 11°
2026-04-29 20:43 39.79686 4.20513 1407 ft 164 kts 12°
2026-04-29 20:43 39.80749 4.20731 1192 ft 146 kts 11°
2026-04-29 20:43 39.81715 4.20930 994 ft 135 kts 11°
2026-04-29 20:44 39.82629 4.21119 827 ft 130 kts 12°
2026-04-29 20:44 39.83506 4.21299 650 ft 128 kts 12°
2026-04-29 20:44 39.84382 4.21480 490 ft 126 kts 12°
2026-04-29 20:44 39.85239 4.21656 319 ft 124 kts 13°
2026-04-29 20:45 39.86015 4.21819 304 ft 95 kts
2026-04-29 20:45 39.86501 4.21914 303 ft 46 kts
2026-04-29 20:45 39.86714 4.21971 305 ft 29 kts 20°
2026-04-29 20:45 39.86857 4.22078 301 ft 15 kts 38°
2026-04-29 20:46 39.86912 4.22137 298 ft 9 kts 39°
2026-04-29 20:46 39.86932 4.22161 300 ft 3 kts 50°
2026-04-29 20:46 39.86936 4.22195 300 ft 4 kts 94°
2026-04-29 20:46 39.86922 4.22226 301 ft 4 kts 139°
2026-04-29 20:47 39.86881 4.22231 299 ft 9 kts 189°
2026-04-29 20:47 39.86808 4.22215 300 ft 12 kts 189°
2026-04-29 20:47 39.86716 4.22196 297 ft 16 kts 188°
2026-04-29 20:47 39.86603 4.22173 295 ft 15 kts 189°
2026-04-29 20:48 39.86550 4.22187 297 ft 9 kts 127°
2026-04-29 20:48 39.86537 4.22273 292 ft 9 kts 99°
2026-04-29 20:48 39.86538 4.22356 288 ft 11 kts 98°
2026-04-29 20:48 39.86530 4.22415 286 ft 3 kts 99°
2026-04-29 20:49 39.86529 4.22424 286 ft 0 kts 99°